Location: Observatory
(52.1446°N, 0.4624°W)
Time: 15:20:51
(UTC+01:00)

ISS - Pass Details

Date: 29 March 2019
Orbit: 408 x 410 km, 51.6° (Epoch: 25 April)

Event Time Altitude Azimuth Distance (km) Brightness Sun altitude
Rises 20:38:26 0° 276° (W) 2,338 1.1 -19.2°
Reaches altitude 10° 20:40:32 10° 275° (W) 1,476 -0.1 -19.4°
Enters shadow 20:43:41 73° 221° (SW) 433 -3.8 -19.8°
